Regional Weather Roundup
Issued by NWS Newport/Morehead, NC

Current Version | Previous Version | Text Only | Print | Product List | Glossary On
Versions: 1 2 3 4 5 6 7 8 9 10 11 12 13 14 15 16 17 18 19 20 21 22 23 24 25 26 27 28 29 30 31 32 33 34 35 36 37 38 39 40 41 42 43 44 45 46 47 48 49 50
000
ASUS42 KMHX 241422
RWRMHX
WEATHER ROUNDUP FOR EASTERN NORTH CAROLINA
NATIONAL WEATHER SERVICE NEWPORT/MOREHEAD CITY NC
1000 AM EDT FRI OCT 24 2014

NOTE: "FAIR" INDICATES FEW OR NO CLOUDS BELOW 12,000 FEET
WITH NO SIGNIFICANT WEATHER AND/OR OBSTRUCTIONS TO VISIBILITY

NCZ015>017-031-032-045>047-102-103-241500-
NORTH COAST

CITY           SKY/WX    TMP DP  RH WIND       PRES   REMARKS
EDENTON        PTSUNNY   56  46  69 NW7       30.02R
ELIZABETH CITY MOSUNNY   54  45  71 W7        30.00S
KITTY HAWK     PTSUNNY   58  47  66 NW9       29.97S
MANTEO         PTSUNNY   57  47  68 NW10G16   29.99R

$$

NCZ045>047-081-094-103-104-241500-
CENTRAL COAST

CITY           SKY/WX    TMP DP  RH WIND       PRES   REMARKS
FRISCO         MOSUNNY   60  49  66 NW12G17   29.99R
SWANQUARTER      N/A     57 N/A N/A NW6G12    29.97S

$$

NCZ095-097-098-100-101-241500-
SOUTHERN COAST

CITY           SKY/WX    TMP DP  RH WIND       PRES   REMARKS
BEAUFORT       PTSUNNY   59  48  67 N14       30.02F
CEDAR ISLAND     N/A     61 N/A N/A NW14      30.06S
JACKSONVILLE   CLOUDY    57  45  64 N7        30.05R
PINEY ISLAND   CLOUDY    62  47  57 NW10      30.03R
WILMINGTON     MOSUNNY   57  47  69 VRB5      30.05R


$$

NCZ011>013-027>030-043-044-078>080-089-090>093-098-241500-
COASTAL PLAIN

CITY           SKY/WX    TMP DP  RH WIND       PRES   REMARKS
AHOSKIE        MOSUNNY   56  46  70 CALM      30.03R
CLINTON        MOSUNNY   55  47  72 N5        30.07S
ELIZABETHTOWN  MOSUNNY   53  45  74 CALM      30.07R
GOLDSBORO      PTSUNNY   55  49  82 NW3       30.05R
GREENVILLE     CLOUDY    54  46  76 NW3       30.06R
HAVELOCK       PTSUNNY   59  47  64 N10       30.04F
KENANSVILLE    PTSUNNY   56  45  65 N7        30.07R
KINSTON        CLOUDY    52  48  87 NW3       30.06R
NEW BERN       CLOUDY    55  48  77 N3        30.05S
RICHLANDS      CLOUDY    55  45  67 CALM      30.06R
ROCKY MOUNT    PTSUNNY   55  45  68 W7        30.05R
WASHINGTON     CLOUDY    53  46  78 CALM      30.04R
WHITEVILLE     MOSUNNY   56  45  65 CALM      30.06S

$$

AMZ130-135-150-152-154-156-158-170-250-252-270-ANZ085-086-088-633-658-670-241500-
MARINE OBSERVATIONS

STATION/POSITION TIME  TEMP    WIND        PRES    WAVE   SWELL
                       AIR SEA DIR/SP/G            HT/PER HT/PER
                 (UTC) (F)     (DEG/KT/KT) (MB)    (FT/S) (FT/S)
CHESAPEAKE LIGHT 1400   59     330/ 22/ 24 1014.6
64 E VA BEACH    1400   62 66  330/ 17/ 21 1012.8    7/ 7
DUCK             1400   55 66  310/ 11/ 15 1014.2
2 E DUCK         1400                        N/A     4/ 8
10 NE DUCK       1400      67                N/A     5/ 7
OREGON INLET     1400   57 63  310/ 14/ 19 1014.7
13E OREGON INLT  1400      70                N/A     6/ 7   2/11
HATTERAS CG      1400   59 63  330/ 18/ 20 1015.8
DIAMOND BUOY     1400   61     320/ 16/ 19 1015.2    4/ 4
17 S OCRACOKE    NOT AVBL
CAPE LOOKOUT     1400   59     360/  9/ 12 1016.3
BEAUFORT LAB     1400   58 68   10/ 11/ 13 1015.9
30 SE NEW RIVER  1400   63 75   20/ 12/ 16 1016.4    4/10   3/10
5 SE WRIGHTSVLE  1400   56 71   10/ 10/ 12   N/A
225 S CAPE HAT   1322   73 77  310/ 10/ 12 1016.0    6/ 9   5/ 9
41 SE CHARLESTON 1400   68 78   10/  8/ 12 1016.9    3/11   3/11

$$



USA.gov is the U.S. government's official web portal to all federal, state and local government web resources and services.